Вернуться в каталог

COSMOS 2251 DEB

АктивенLEO
NORAD 34425·DEBRIS·🇷🇺 Russia

Запущен Jun 16, 1993 с Plesetsk Cosmodrome

Loading…

Ближайшие Пролёты (ближайшие 24 часа)

TLE

СвежийSource: Space-Track

Эпоха: Sep 14, 2026, 08:54 UTC

1 34425U 93036RS  26257.37138189  .00001232  00000-0  24244-3 0  9998
2 34425  74.0148 245.4970 0028384 295.2908  64.5319 14.63491175927710

Отслеживайте COSMOS 2251 DEB в реальном времени с AllMySat

Download on the App Store